This is the latest recevied weather packets stored in our database for station/object WE8M. If no packets are shown the sender has not sent any weather packets the latest 10 day(s).
| Time | Temp. | Humidity | Pressure | Rain* | Wind** | Luminosity | Snow |
|---|---|---|---|---|---|---|---|
| 1777360347 | 15° C | 97% | 1012.8 hPa | 6.1 mm | - | - | - |
| 1777360045 | 15° C | 97% | 1013.3 hPa | 6.1 mm | - | - | - |
| 1777359741 | 15° C | 97% | 1013.6 hPa | 7.87 mm | - | - | - |
| 1777359439 | 15° C | 97% | 1013.8 hPa | 8.89 mm | - | - | - |
| 1777359135 | 15° C | 97% | 1013.8 hPa | 14.99 mm | - | - | - |
| 1777358833 | 15° C | 97% | 1013.9 hPa | 39.62 mm | - | - | - |
| 1777358530 | 15.56° C | 97% | 1014 hPa | 28.7 mm | - | - | - |
| 1777358228 | 15.56° C | 97% | 1013.7 hPa | 7.87 mm | - | - | - |
| 1777357926 | 15.56° C | 97% | 1012.3 hPa | 7.87 mm | - | - | - |
| 1777357623 | 15.56° C | 97% | 1011.8 hPa | 14.99 mm | - | - | - |
| 1777357319 | 15.56° C | 97% | 1011.5 hPa | 14.99 mm | - | - | - |
| 1777357016 | 15.56° C | 97% | 1011.2 hPa | 9.65 mm | - | - | - |
| 1777356714 | 15.56° C | 97% | 1011.2 hPa | 7.87 mm | - | - | - |
| 1777356411 | 15.56° C | 97% | 1011.7 hPa | 4.83 mm | - | - | - |
| 1777356107 | 15.56° C | 97% | 1011.9 hPa | 7.87 mm | - | - | - |
| 1777355804 | 15.56° C | 97% | 1012.1 hPa | 8.89 mm | - | - | - |
| 1777355501 | 15.56° C | 97% | 1012.2 hPa | 8.89 mm | - | - | - |
| 1777355198 | 15.56° C | 97% | 1012.1 hPa | 16.76 mm | - | - | - |
| 1777354893 | 15.56° C | 97% | 1011.6 hPa | 21.08 mm | - | - | - |
| 1777354590 | 15.56° C | 97% | 1011.6 hPa | 18.03 mm | - | - | - |
| 1777354286 | 15.56° C | 97% | 1012 hPa | 13.72 mm | - | - | - |
| 1777353983 | 15.56° C | 97% | 1011.7 hPa | 18.54 mm | - | - | - |
| 1777353680 | 15.56° C | 96% | 1011.4 hPa | 25.91 mm | - | - | - |
| 1777353378 | 15.56° C | 96% | 1011.4 hPa | 23.88 mm | - | - | - |
| 1777353075 | 15.56° C | 96% | 1011.8 hPa | 10.67 mm | - | - | - |
* Rain latest hour (hover to see other rain measurements)
** Current wind speed in m/s (hover to see current wind gust speed)